Regional Weather Roundup
Issued by NWS

Home | Current Version | Previous Version | Text Only | Print | Product List | Glossary Off
Versions: 1 2 3 4 5 6 7 8 9 10 11 12 13 14 15 16 17 18 19 20 21 22 23 24 25 26 27 28 29 30 31 32 33 34 35 36 37 38 39 40 41 42 43 44 45 46 47 48 49 50

000
ASUS43 KMPX 011310
RWRMN
WEATHER ROUNDUP FOR MINNESOTA
NATIONAL WEATHER SERVICE TWIN CITIES/CHANHASSEN MN
800 AM CDT SAT OCT 01 2016


NOTE: "FAIR" INDICATES FEW OR NO CLOUDS BELOW 12,000 FEET WITH NO
SIGNIFICANT WEATHER AND/OR OBSTRUCTIONS TO VISIBILITY. N/A MEANS
CURRENT SKY AND/OR WEATHER CONDITIONS ARE NOT AVAILABLE.

MNZ060>063-068>070-011400-
   Twin Cities Metro

CITY           SKY/WX    TMP DP  RH WIND       PRES   REMARKS
TWIN CITIES    CLEAR     53  50  89 NE6       30.18S
ST PAUL        CLEAR     54  51  90 CALM      30.19S
CRYSTAL        CLOUDY    51  49  92 NE5       30.18S FOG
BLAINE         FOG       52  52 100 CALM      30.19S VSB 1/4
LAKEVILLE        N/A     52  52 100 NE3       30.17S
EDEN PRAIRIE   CLEAR     54  51  90 NE7       30.17R
LAKEVILLE        N/A     52  52 100 NE3       30.17S
SOUTH ST PAUL  CLEAR     55  52  91 N3        30.18S
LAKE ELMO      FAIR      52  52 100 N5        30.20R
$$
MNZ001>005-007-008-013>017-022>024-027-028-011400-
   Northwest Minnesota

CITY           SKY/WX    TMP DP  RH WIND       PRES   REMARKS
BEMIDJI        FOG       49  49 100 SE7       30.21F VSB<1/4
HALLOCK        MOCLDY    54  50  87 SE7       30.16S
ROSEAU         PTCLDY    52  46  82 SE3       30.20S
WARROAD        CLOUDY    48  45  87 E3        30.21S
THIEF RVR FALL MOCLDY    47  45  93 SE8       30.19S
CROOKSTON      CLOUDY    50  48  93 SE7       30.17S
FOSSTON        PTCLDY    45  43  93 E3        30.20S
DETROIT LAKES  FOG       46  46 100 SE6       30.20S VSB 1/2
MOORHEAD       PTCLDY    52  48  87 SE5       30.17R FOG
PARK RAPIDS    FOG       51  49  92 CALM      30.21S VSB 1/4
MAHNOMEN       FAIR      48  46  94 SE7       30.17F
$$
MNZ006-009>011-018-025>026-011400-
   North Central Minnesota

CITY           SKY/WX    TMP DP  RH WIND       PRES   REMARKS
BAUDETTE       MOCLDY    47  45  93 MISG      30.22S
FLAG ISLAND    CLOUDY    54  48  82 SE10      30.20S
INTL FALLS     CLOUDY    43  43 100 SE5       30.24S
WASKISH        FOG       45  43  93 CALM      30.22S VSB<1/4
BIG FORK       FOG       43  41  93 CALM      30.23F VSB<1/4
LONGVILLE      FOG       48  48 100 CALM      30.22S VSB<1/4
GRAND RAPIDS   FOG       48  48 100 SE3       30.25S VSB 1/4
CRANE LAKE     MOCLDY    36  36 100 CALM      30.27F FOG
ORR            CLEAR     36  34  93 CALM      30.22F
COOK           CLOUDY    43  41  93 CALM      30.25S
WALKER         CLOUDY    49  49  99 CALM      30.22S FOG
$$
MNZ012-019>021-037-011400-
   Northeast Minnesota

CITY           SKY/WX    TMP DP  RH WIND       PRES   REMARKS
DULUTH         PTCLDY    51  49  92 E3        30.23S
ELY            CLOUDY    48  46  93 CALM      30.25S
HIBBING        FOG       40  40 100 CALM      30.24S VSB<1/4
EVELETH        MOCLDY    44  43  97 CALM      30.25S
DULUTH HARBOR  FOG       54  52  94 E6        30.24S VSB 1/4
TWO HARBORS    MOCLDY    54  48  82 N5        30.22S
SILVER BAY     CLOUDY    50  48  93 CALM      30.23S
GRAND MARAIS     N/A     58  50  75 NE3       30.24S
G MARAIS ARPRT CLOUDY    50  45  81 N5        30.27S
$$
MNZ029>031-032-039>041-046>048-054>057-064-011400-
   West Central Minnesota

CITY           SKY/WX    TMP DP  RH WIND       PRES   REMARKS
FERGUS FALLS   PTCLDY    50  50 100 E6        30.20S
MORRIS         FOG       48  48 100 E8        30.17S VSB<1/4
ALEXANDRIA     FOG       50  50 100 E8        30.20S VSB<1/4
ELBOW LAKE     FOG       49  49 100 SE8       30.18S VSB 1/4
WADENA         FOG       50  48  93 SE5       30.20S VSB<1/4
GLENWOOD       FOG       52  52 100 E8        30.20S VSB<1/4
APPLETON       FOG       46  45  93 CALM      30.18S VSB<1/4
BENSON         FOG       50  48  93 SE5       30.18S VSB 1/4
ORTONVILLE     CLOUDY    48  45  87 CALM      30.17S FOG
MADISON        PTCLDY    46  46 100 E3        30.17S FOG
WILLMAR        FOG       54  54 100 CALM      30.20S VSB 1/4
$$
MNZ033>034-036-042>043-049>051-058-059-011400-
   Central Minnesota

CITY           SKY/WX    TMP DP  RH WIND       PRES   REMARKS
ST CLOUD       CLOUDY    51  51 100 NE6       30.21R
SAUK CENTRE    FOG       51  51 100 E5        30.21R VSB 1/4
PAYNESVILLE    FOG       52  52 100 NE6       30.20S VSB 1
AITKIN         FOG       52  46  82 NE3       30.21S VSB 1/2
PINE RIVER     FOG       50  50 100 E3        30.24S VSB 1/2
BRAINERD       FOG       48  48 100 E5        30.22S VSB 1/4
STAPLES        CLOUDY    50  50 100 CALM      30.21S FOG
LONG PRAIRIE   SNOW      50  50 100 NE3       30.21R VSB<1/4
LITTLE FALLS   CLOUDY    50  48  93 CALM      30.22R FOG
LITCHFIELD     RAIN      54  54 100 NE6       30.20R VSB<1/4
BUFFALO        FOG       51  50  95 N3        30.21R VSB 1/2
MAPLE LAKE     CLOUDY    53  53  99 NE5       30.21R FOG
HUTCHINSON     CLOUDY    53  53 100 NE7       30.20R FOG
$$
MNZ037-044-045-052-053-011400-
   East Central Minnesota

CITY           SKY/WX    TMP DP  RH WIND       PRES   REMARKS
PRINCETON      CLOUDY    52  52 100 NE6       30.21R FOG
MORA           FOG       48  46  93 NE3       30.23R VSB 1
CAMBRIDGE      CLOUDY    54  52  94 CALM      30.19R FOG
MOOSE LAKE     FOG       50  48  93 CALM      30.21S VSB 1/2
HINCKLEY       CLOUDY    50  50 100 NE3       30.23R FOG
CLOQUET        FOG       52  48  87 NE3       30.23S VSB 3/4
MCGREGOR       CLOUDY    50  48  93 NE3       30.23S VSB 1/2
$$
MNZ071>073-080-081-089-090-097-098-011400-
   Southwest Minnesota

CITY           SKY/WX    TMP DP  RH WIND       PRES   REMARKS
MONTEVIDEO     FOG       45  45 100 CALM      30.20R VSB<1/4
GRANITE FALLS  CLEAR     48  47  98 E3        30.19S FOG
CANBY          FOG       44  43  97 CALM      30.18S VSB 1/4
MARSHALL       CLEAR     45  44  97 CALM      30.18R
REDWOOD FALLS  CLOUDY    51  49  92 NE3       30.18R FOG
OLIVIA         CLEAR     50  46  87 CALM      30.17S FOG
PIPESTONE      CLOUDY    55  54  94 CALM      30.16F
WINDOM         CLOUDY    55  54  94 CALM      30.17S
WORTHINGTON    CLOUDY    56  54  93 NE7       30.18R
JACKSON        CLOUDY    57  52  82 CALM      30.17S
TRACY          CLOUDY    55  53  91 CALM      30.17S
SLAYTON        CLOUDY    54  52  94 CALM      30.18S
$$
MNZ065>067-074>077-082>085-091>093-011400-
   South Central Minnesota

CITY           SKY/WX    TMP DP  RH WIND       PRES   REMARKS
MANKATO        MOCLDY    57  54  89 NE10      30.17R
NEW ULM        CLOUDY    54  52  94 NE5       30.17R
ST JAMES       CLOUDY    55  54  94 CALM      30.18R
FAIRMONT       CLOUDY    57  54  89 NW3       30.16S
GLENCOE        FOG       52  52 100 N5        30.18R VSB 1/4
FARIBAULT      PTCLDY    55  54  94 N3        30.17S
OWATONNA       MOCLDY    57  54  88 NE3       30.16S
WASECA         CLOUDY    55  52  88 NE3       30.17S
ALBERT LEA     PTCLDY    57  55  94 N3        30.15S
$$
MNZ078>079-086>088-094>096-011400-
   Southeast Minnesota

CITY           SKY/WX    TMP DP  RH WIND       PRES   REMARKS
ROCHESTER      CLOUDY    57  54  89 NE8       30.16R
RED WING       CLEAR     55  52  88 CALM      30.16S
STANTON        CLEAR     55  52  92 N5        30.16R
DODGE CENTER   CLOUDY    55  54  94 NE3       30.16R
WINONA         CLOUDY    59  52  77 CALM      30.15R HAZE
AUSTIN         CLOUDY    57  54  88 NE3       30.15R
PRESTON        CLOUDY    56  53  92 N3        30.15S
$$
ABBREVIATIONS USED IN REMARKS
   TC - TEMPERATURES IN CELSIUS
  WCI - WIND CHILL INDEX
   HX - HEAT INDEX
  VSB - VISIBILITY
$$



USA.gov is the U.S. government's official web portal to all federal, state and local government web resources and services.